Location: Bakov nad Jizerou
(50.4784°N, 14.9394°E)
Time: 09:28:05
(UTC+00:00)

Meteor 2-10 Rocket - Pass Details

Date: 16 June 2021
Orbit: 734 x 885 km, 81.2° (Epoch: 04 August)

Event Time Altitude Azimuth Distance (km) Brightness Sun altitude
Rises 21:26:49 0° 348° (NNW) 3,251 8.6 -13.3°
Reaches altitude 10° 21:29:13 10° 350° (N) 2,302 7.4 -13.4°
Maximum altitude 21:34:23 78° 77° (ENE) 766 3.5 -13.7°
Enters shadow 21:37:46 21° 162° (SSE) 1,615 4.5 -13.9°
